Location: Sungai Buloh
(3.1000°N, 113.0000°E)
Time: 17:00:41
(UTC+00:00)

ARIANE 5 R/B - Pass Details

Date: 12 January 2026
Orbit: 284 x 30947 km, 5.9° (Epoch: 10 February)

Event Time Altitude Azimuth Distance (km) Brightness Sun altitude
Exits shadow 21:46:42 19° 257° (WSW) 902 2.4 -12.7°
Maximum altitude 21:48:13 77° 172° (S) 477 1.5 -12.4°
Drops below altitude 10° 21:54:09 10° 86° (E) 3,294 6.9 -11.0°
Sets 22:00:40 0° 85° (E) 6,419 8.5 -9.5°
